Location: Degersen
(52.2871°N, 9.5716°E)
Time: 21:24:24
(UTC+00:00)

SOZ - Pass Details

Date: 20 January 2026
Orbit: 328 x 16064 km, 51.9° (Epoch: 16 February)

Event Time Altitude Azimuth Distance (km) Brightness Sun altitude
Exits shadow 05:39:19 33° 268° (W) 678 4.8 -14.8°
Maximum altitude 05:40:19 72° 191° (S) 472 4.4 -14.6°
Drops below altitude 10° 05:44:59 10° 107° (ESE) 2,554 9.7 -14.0°
Sets 05:49:19 0° 106° (ESE) 4,680 11.6 -13.3°
